Погода в Какамеге

Кения     0°16′53″N   34°44′51″E
темп.,
°C
ветер,
м/с
пор.,
м/с
влажн.,
%
обл.,
%
осадки,
мм/ч
давл.,
гПа
погр.,
м
28 ноября, вс
вс2800:00+16вюв228777 0.0 101529
03:00+16в228792 0.1 101327
06:00+15в34899 0.1 101460
09:00+19в51179100 0.6 1016709
12:00+22св376665 0.3 1013941
15:00+26св584333 0.3 10082120
18:00+22св366335 0.0 1009115
21:00+20в3864100 0.0 1013227
29 ноября, пн
пн2900:00+19в2570100 0.2 1013143
03:00+18в257373 0.2 1012118
06:00+18в2570100 0.0 1013116
09:00+21всв466295 0.0 1014696
12:00+27св354368 0.0 10102208
15:00+25сз245369 0.0 1008746
18:00+18ююв368697 1.6 101197
21:00+18вюв358532 2.6 101380
30 ноября, вт
вт3000:00+17в228769 0.0 101324
03:00+17в348687 0.0 101272
06:00+17в3583100 0.0 1012122
09:00+21всв486627 0.0 1013621
12:00+27св564279 0.0 10102369
15:00+24юв2358100 0.0 100767
18:00+21ююз3467100 0.2 100992
21:00+19юв347896 0.5 101275
1 декабря, ср
ср100:00+16в337955 0.0 101245
03:00+15вюв228429 0.0 101223
06:00+16в228198 0.0 101230
09:00+20вюв2470100 0.0 1013237
12:00+27з244558 0.0 10091729
15:00+23ю236484 0.0 100757
18:00+22юв226371 0.0 100820
21:00+17з018520 0.6 101211
2 декабря, чт
чт200:00+16в337784 0.1 101335
03:00+15в3479100 0.1 101258
06:00+15в3582100 0.0 101376
09:00+22в245816 0.0 1012450
12:00+28з133959 0.0 10091976
15:00+27ююв1345100 0.0 10061257
18:00+18ююв598029 0.4 1010270
21:00+18вюв357894 0.8 101298